Regional Weather Roundup
Issued by NWS

Home | Current Version | Previous Version | Graphics & Text | Print | Product List | Glossary On
Versions: 1 2 3 4 5 6 7 8 9 10 11 12 13 14 15 16 17 18 19 20 21 22 23 24 25 26 27 28 29 30 31 32 33 34 35 36 37 38 39 40 41 42 43 44 45 46 47 48 49 50
000
ASUS43 KBIS 230610
RWRND

NORTH DAKOTA REGIONAL WEATHER ROUNDUP
NATIONAL WEATHER SERVICE BISMARCK ND
100 AM CDT MON APR 23 2018

NOTE: "FAIR" INDICATES FEW OR NO CLOUDS BELOW 12,000 FEET WITH NO
SIGNIFICANT WEATHER AND/OR OBSTRUCTIONS TO VISIBILITY.


NDZ001>003-009>011-017-230700-
NORTHWEST NORTH DAKOTA

CITY           SKY/WX    TMP DP  RH WIND       PRES   REMARKS
WILLISTON      PTCLDY    42  31  64 NE5       30.15R
6HR MIN TEMP:  40; 6HR MAX TEMP:  66;

MINOT          CLOUDY    42  34  73 NW7       30.11R
$$

NDZ018>021-031>035-040>046-230700-
SOUTHWEST NORTH DAKOTA

CITY           SKY/WX    TMP DP  RH WIND       PRES   REMARKS
BISMARCK       PTCLDY    48  39  71 SE6       30.13S
6HR MIN TEMP:  47; 6HR MAX TEMP:  66;

DICKINSON      CLEAR     45  30  55 E7        30.11R
GARRISON         N/A     43  33  68 S3        30.11S
6HR MIN TEMP:  36; 6HR MAX TEMP:  60;

HETTINGER ARPT MOCLDY    47  35  63 NE10      30.11S
$$

NDZ004>008-012>016-024-026-027-054-230700-
NORTHEAST NORTH DAKOTA

CITY           SKY/WX    TMP DP  RH WIND       PRES   REMARKS
GRAND FORKS    MOCLDY    47  42  83 S9        30.11S
DEVILS LAKE    FAIR      41  36  82 SW3       30.11F
$$

NDZ022-023-025-028>030-036>039-047>053-230700-
SOUTHEAST NORTH DAKOTA

CITY           SKY/WX    TMP DP  RH WIND       PRES   REMARKS
FARGO          FAIR      47  37  68 S14       30.16F
6HR MIN TEMP:  47; 6HR MAX TEMP:  63;

JAMESTOWN      CLEAR     44  37  76 SW7       30.15R
$$




USA.gov is the U.S. government's official web portal to all federal, state and local government web resources and services.